Location: Bear Valley Community Church - Hurst
(32.8460°N, 97.1828°W)
Time: 04:18:40
(UTC+00:00)

OAO 2 Rocket - Visible Passes

Search period start: 05 July 2022 00:00
Search period end: 15 July 2022 00:00
Orbit: 676 x 744 km, 35.0° (Epoch: 04 July)

Date Brightness Start Highest point End Pass type
(mag) Time Alt. Az. Time Alt. Az. Time Alt. Az.
10 Jul 5.6 10:44:14 10° S 10:46:22 13° SE 10:48:28 10° ESE visible
12 Jul 5.0 10:30:41 10° SSW 10:34:37 22° SSE 10:38:30 10° E visible
13 Jul 5.3 09:35:41 14° SSE 09:36:43 15° SE 09:39:29 10° ESE visible
14 Jul 4.2 10:19:39 18° SSW 10:22:57 36° SSE 10:27:35 10° E visible
